Total_Precipitation_Accumulation
0.17 0.23 0.38 0.56 0.77 0.92 1.37 1.49 1.43 0.68 0.49 0.31 0.15 0.05 0.00 0.00 0.00 0.00 0.00 0.00 0.00 0.00 0.00 0.00 0.00 0.00 0.00 0.00 0.00 0.00 0.00 0.00 0.00 0.00 0.00 0.00 0.00 0.00 0.00 0.00 0.00 0.00 0.00 0.00
0.19 0.21 0.26 0.49 0.65 0.62 1.10 1.27 0.98 0.90 1.03 0.84 0.14 0.01 0.01 0.00 0.00 0.00 0.00 0.00 0.00 0.00 0.00 0.00 0.00 0.00 0.00 0.00 0.00 0.00 0.00 0.00 0.00 0.00 0.00 0.00 0.00 0.00 0.00 0.00 0.00 0.00 0.00 0.00
0.19 0.23 0.27 0.43 0.61 0.50 0.64 1.19 1.06 1.13 1.27 1.14 0.16 0.03 0.02 0.02 0.00 0.00 0.00 0.00 0.00 0.00 0.00 0.00 0.00 0.00 0.00 0.00 0.00 0.00 0.00 0.00 0.00 0.00 0.00 0.00 0.00 0.00 0.00 0.00 0.00 0.00 0.00 0.00
0.24 0.26 0.26 0.40 0.60 0.55 0.31 0.76 0.85 0.83 1.31 1.08 0.39 0.21 0.24 0.13 0.09 0.05 0.01 0.01 0.00 0.00 0.00 0.00 0.00 0.00 0.00 0.00 0.00 0.00 0.00 0.00 0.00 0.00 0.00 0.00 0.00 0.00 0.00 0.00 0.00 0.00 0.00 0.00
0.18 0.27 0.36 0.38 0.60 0.62 0.20 0.36 0.40 0.45 0.62 0.79 0.67 0.43 0.42 0.33 0.32 0.23 0.17 0.10 0.06 0.02 0.02 0.02 0.00 0.00 0.00 0.00 0.00 0.00 0.00 0.00 0.00 0.00 0.00 0.00 0.00 0.00 0.00 0.00 0.00 0.00 0.00 0.01
0.08 0.17 0.32 0.40 0.65 0.54 0.18 0.15 0.21 0.30 0.41 0.51 0.68 0.72 0.41 0.21 0.20 0.32 0.27 0.26 0.16 0.10 0.09 0.07 0.04 0.01 0.01 0.03 0.02 0.03 0.03 0.03 0.04 0.04 0.01 0.02 0.02 0.00 0.00 0.00 0.01 0.02 0.03 0.06
0.09 0.14 0.16 0.33 0.66 0.50 0.20 0.10 0.11 0.16 0.24 0.26 0.40 0.50 0.39 0.25 0.21 0.23 0.22 0.16 0.13 0.20 0.14 0.11 0.09 0.04 0.04 0.04 0.06 0.04 0.07 0.09 0.13 0.14 0.12 0.15 0.03 0.01 0.00 0.01 0.03 0.02 0.02 0.00
0.09 0.08 0.11 0.15 0.40 0.67 0.30 0.17 0.06 0.04 0.10 0.10 0.18 0.26 0.29 0.31 0.30 0.30 0.20 0.10 0.05 0.04 0.06 0.13 0.18 0.15 0.16 0.16 0.12 0.11 0.09 0.17 0.19 0.21 0.22 0.14 0.07 0.02 0.00 0.02 0.06 0.02 0.00 0.00
0.10 0.11 0.09 0.10 0.19 0.66 0.62 0.29 0.06 0.02 0.03 0.06 0.06 0.11 0.12 0.15 0.17 0.27 0.22 0.11 0.05 0.03 0.03 0.06 0.10 0.10 0.06 0.05 0.06 0.05 0.09 0.16 0.25 0.32 0.28 0.19 0.04 0.00 0.00 0.00 0.07 0.00 0.00 0.00
0.11 0.04 0.09 0.10 0.12 0.33 0.59 0.49 0.10 0.06 0.02 0.04 0.03 0.04 0.07 0.04 0.03 0.14 0.13 0.06 0.03 0.01 0.00 0.02 0.02 0.03 0.01 0.02 0.01 0.02 0.08 0.12 0.14 0.17 0.29 0.16 0.06 0.00 0.00 0.00 0.01 0.00 0.00 0.00
0.06 0.01 0.02 0.06 0.11 0.40 0.50 0.55 0.27 0.06 0.02 0.02 0.00 0.00 0.00 0.01 0.00 0.02 0.02 0.00 0.01 0.01 0.01 0.00 0.00 0.00 0.00 0.00 0.00 0.00 0.02 0.03 0.04 0.06 0.12 0.04 0.01 0.00 0.00 0.00 0.00 0.00 0.00 0.00
0.02 0.09 0.06 0.04 0.04 0.27 0.42 0.52 0.50 0.19 0.02 0.03 0.01 0.00 0.00 0.00 0.00 0.00 0.00 0.00 0.00 0.00 0.00 0.00 0.00 0.00 0.00 0.00 0.00 0.00 0.00 0.00 0.00 0.00 0.00 0.00 0.00 0.00 0.00 0.00 0.00 0.00 0.00 0.00
0.01 0.07 0.17 0.12 0.11 0.12 0.18 0.26 0.58 0.37 0.07 0.04 0.02 0.00 0.00 0.00 0.00 0.00 0.00 0.00 0.00 0.00 0.00 0.00 0.00 0.00 0.00 0.00 0.00 0.00 0.00 0.00 0.00 0.00 0.00 0.00 0.00 0.00 0.00 0.00 0.00 0.00 0.00 0.00
0.01 0.01 0.16 0.13 0.18 0.23 0.14 0.12 0.38 0.42 0.16 0.08 0.06 0.00 0.00 0.00 0.00 0.00 0.00 0.00 0.00 0.00 0.00 0.01 0.01 0.00 0.00 0.00 0.00 0.00 0.00 0.00 0.00 0.00 0.00 0.00 0.00 0.00 0.00 0.00 0.00 0.00 0.00 0.00
0.03 0.01 0.08 0.31 0.21 0.16 0.09 0.12 0.34 0.31 0.14 0.09 0.06 0.03 0.00 0.00 0.00 0.00 0.00 0.00 0.00 0.01 0.04 0.05 0.02 0.00 0.00 0.00 0.00 0.00 0.00 0.00 0.00 0.00 0.00 0.00 0.00 0.00 0.00 0.00 0.00 0.00 0.00 0.00
0.09 0.03 0.07 0.36 0.69 0.12 0.07 0.14 0.25 0.20 0.08 0.03 0.11 0.07 0.02 0.00 0.00 0.00 0.00 0.00 0.00 0.04 0.08 0.06 0.03 0.00 0.02 0.05 0.01 0.00 0.00 0.00 0.00 0.00 0.00 0.00 0.00 0.00 0.00 0.00 0.00 0.00 0.00 0.00
0.24 0.16 0.14 0.23 0.49 0.21 0.10 0.09 0.12 0.13 0.03 0.01 0.03 0.04 0.02 0.00 0.00 0.00 0.00 0.01 0.02 0.04 0.09 0.06 0.03 0.02 0.06 0.06 0.00 0.00 0.00 0.00 0.00 0.00 0.00 0.00 0.00 0.00 0.00 0.00 0.00 0.00 0.00 0.00
0.32 0.36 0.18 0.05 0.08 0.10 0.06 0.06 0.05 0.02 0.01 0.00 0.01 0.01 0.01 0.00 0.01 0.01 0.01 0.03 0.04 0.06 0.05 0.02 0.01 0.04 0.10 0.05 0.00 0.00 0.00 0.00 0.00 0.00 0.00 0.00 0.00 0.00 0.00 0.00 0.00 0.00 0.00 0.00
0.06 0.13 0.10 0.08 0.00 0.00 0.01 0.00 0.00 0.00 0.00 0.00 0.00 0.00 0.00 0.00 0.01 0.00 0.01 0.02 0.05 0.04 0.03 0.01 0.01 0.04 0.02 0.00 0.00 0.00 0.00 0.00 0.00 0.00 0.00 0.00 0.00 0.00 0.00 0.00 0.00 0.00 0.00 0.00
0.00 0.00 0.00 0.01 0.02 0.04 0.01 0.00 0.01 0.01 0.01 0.00 0.00 0.00 0.00 0.00 0.00 0.01 0.01 0.01 0.02 0.01 0.01 0.01 0.04 0.02 0.00 0.00 0.00 0.00 0.00 0.00 0.00 0.00 0.00 0.00 0.00 0.00 0.00 0.00 0.00 0.00 0.00 0.00
0.00 0.00 0.00 0.00 0.01 0.02 0.00 0.00 0.00 0.01 0.01 0.01 0.01 0.00 0.00 0.00 0.00 0.01 0.01 0.01 0.01 0.00 0.01 0.01 0.02 0.00 0.01 0.01 0.00 0.00 0.00 0.00 0.00 0.00 0.00 0.00 0.00 0.00 0.00 0.00 0.00 0.00 0.00 0.00
0.02 0.01 0.00 0.00 0.00 0.00 0.00 0.00 0.00 0.00 0.01 0.01 0.02 0.01 0.01 0.01 0.00 0.01 0.03 0.02 0.02 0.01 0.01 0.02 0.01 0.01 0.00 0.00 0.00 0.00 0.00 0.00 0.00 0.00 0.00 0.00 0.00 0.00 0.00 0.00 0.00 0.00 0.00 0.00
0.04 0.02 0.01 0.00 0.00 0.01 0.00 0.00 0.00 0.00 0.00 0.01 0.01 0.01 0.02 0.02 0.02 0.04 0.02 0.02 0.02 0.01 0.03 0.02 0.00 0.00 0.00 0.00 0.00 0.00 0.00 0.00 0.00 0.00 0.00 0.00 0.00 0.00 0.00 0.00 0.00 0.00 0.00 0.00
0.18 0.09 0.03 0.01 0.01 0.01 0.00 0.00 0.00 0.00 0.01 0.01 0.01 0.01 0.01 0.01 0.01 0.03 0.03 0.04 0.03 0.04 0.02 0.01 0.00 0.00 0.00 0.00 0.00 0.00 0.00 0.00 0.00 0.00 0.00 0.00 0.00 0.00 0.00 0.00 0.00 0.00 0.00 0.00
0.12 0.10 0.05 0.03 0.01 0.01 0.01 0.00 0.00 0.00 0.00 0.01 0.00 0.01 0.01 0.02 0.03 0.03 0.04 0.03 0.02 0.02 0.01 0.00 0.00 0.00 0.00 0.00 0.00 0.00 0.00 0.00 0.00 0.00 0.00 0.00 0.00 0.00 0.00 0.00 0.00 0.00 0.00 0.00
0.02 0.05 0.05 0.02 0.02 0.02 0.02 0.02 0.02 0.01 0.02 0.03 0.03 0.03 0.01 0.02 0.02 0.04 0.02 0.01 0.00 0.01 0.00 0.00 0.00 0.00 0.00 0.00 0.00 0.00 0.00 0.00 0.00 0.00 0.00 0.00 0.00 0.00 0.00 0.00 0.00 0.00 0.00 0.00
0.01 0.02 0.01 0.02 0.03 0.04 0.04 0.05 0.06 0.07 0.10 0.09 0.08 0.06 0.02 0.02 0.02 0.01 0.01 0.01 0.00 0.01 0.00 0.00 0.00 0.00 0.00 0.00 0.00 0.00 0.00 0.00 0.00 0.00 0.00 0.00 0.00 0.00 0.00 0.00 0.00 0.00 0.00 0.00